This is the latest recevied weather packets stored in our database for station/object DELTON-WX. If no packets are shown the sender has not sent any weather packets the latest 1 day(s).
| Time | Temp. | Humidity | Pressure | Rain* | Wind** | Luminosity | Snow |
|---|---|---|---|---|---|---|---|
| 1778001349 | 10° C | 47% | 973.9 hPa | 0 mm | 4.02 m/s, 273° | - | - |
| 1778000480 | 11.11° C | 47% | 973.9 hPa | 0 mm | 4.47 m/s, 280° | - | - |
| 1777999549 | 10.56° C | 54% | 974.7 hPa | 0 mm | 4.92 m/s, 278° | - | - |
| 1777998667 | 10.56° C | 58% | 973 hPa | 0 mm | 4.92 m/s, 278° | - | - |
| 1777997749 | 10° C | 58% | 973 hPa | 0 mm | 4.92 m/s, 282° | - | - |
| 1777996882 | 9.44° C | 58% | 973 hPa | 0 mm | 4.92 m/s, 278° | - | - |
| 1777995945 | 9.44° C | 54% | 974.8 hPa | 0 mm | 5.36 m/s, 280° | - | - |
| 1777995070 | 8.89° C | 55% | 973.8 hPa | 0 mm | 5.36 m/s, 276° | - | - |
| 1777994148 | 9.44° C | 55% | 973.7 hPa | 0 mm | 5.36 m/s, 280° | - | - |
| 1777993290 | 8.89° C | 55% | 973.7 hPa | 0 mm | 5.36 m/s, 285° | - | - |
| 1777992349 | 9.44° C | 72% | 973.7 hPa | 2.03 mm | 5.81 m/s, 285° | - | - |
| 1777991467 | 9.44° C | 60% | 973.7 hPa | 2.03 mm | 5.81 m/s, 285° | - | - |
| 1777990548 | 8.89° C | 60% | 973.6 hPa | 0 mm | 4.92 m/s, 286° | - | - |
| 1777989690 | 8.89° C | 60% | 973.6 hPa | 0 mm | 6.26 m/s, 294° | - | - |
| 1777988748 | 8.89° C | 71% | 973.4 hPa | 0 mm | 7.15 m/s, 300° | - | - |
| 1777987868 | 10° C | 71% | 973.4 hPa | 0 mm | 6.71 m/s, 299° | - | - |
| 1777986948 | 9.44° C | 71% | 973.4 hPa | 0 mm | 5.36 m/s, 301° | - | - |
| 1777986082 | 9.44° C | 71% | 973.4 hPa | 0 mm | 4.02 m/s, 301° | - | - |
| 1777985147 | 10° C | 72% | 972.5 hPa | 0 mm | 4.47 m/s, 301° | - | - |
| 1777984267 | 9.44° C | 73% | 971 hPa | 0 mm | 4.92 m/s, 298° | - | - |
| 1777983348 | 8.89° C | 73% | 971 hPa | 0 mm | 4.92 m/s, 285° | - | - |
| 1777982495 | 8.89° C | 73% | 971 hPa | 0 mm | 5.81 m/s, 282° | - | - |
| 1777981548 | 8.89° C | 72% | 971.1 hPa | 0 mm | 4.92 m/s, 280° | - | - |
| 1777980665 | 8.89° C | 68% | 969.9 hPa | 0 mm | 4.02 m/s, 282° | - | - |
| 1777979748 | 8.89° C | 68% | 969.9 hPa | 0 mm | 4.02 m/s, 271° | - | - |
* Rain latest hour (hover to see other rain measurements)
** Current wind speed in m/s (hover to see current wind gust speed)